Torna al catalogo

STARLINK-31757

AttivoComunicazioniVLEO
NORAD 59427·PAYLOAD·🇺🇸 United States

Lanciato Apr 7, 2024 da Vandenberg Space Force Base

Loading…

Prossimi Passaggi (prossime 24 ore)

TLE

AggiornatoSource: CelesTrak SupGP

Epoca: Sep 14, 2026, 22:41 UTC

1 59427C 24065G   26257.94562500 -.00034482  00000+0 -10188-2 0  2576
2 59427  53.1568 119.4063 0001293  81.2795 168.8761 15.34407238    13

Traccia STARLINK-31757 in tempo reale con AllMySat

Download on the App Store